Hourly Data Report for July 12, 2021

PRINCE RUPERT
BRITISH COLUMBIA
Current Station Operator: NAVCAN

54°17'10.000" N
130°26'41.000" W
35.40 m
1066482
71022
YPR

Download Data

Hourly Data (July 2021)
Hourly Data Report for July 12, 2021
TIME
LST
Temp Definition
°C
Dew Point Definition
°C
Rel Hum Definition
%
Precip. Amount Definition
mm

Wind Dir Definition
10's deg

Wind Spd Definition
km/h
Visibility Definition
km
Stn Press Definition
kPa
Hmdx Definition


Wind Chill Definition


Weather Definition


00:00 11.8 10.9 94 0.0 11 5 16.1 101.74     LegendNANA
01:00 11.9 11.0 94 0.0   0 16.1 101.73     LegendNANA
02:00 11.6 11.0 96 0.0 13 5 16.1 101.73     LegendNANA
03:00 11.8 11.0 95 0.0 7 5 16.1 101.74     LegendNANA
04:00 11.7 10.9 95 0.0 8 4 16.1 101.73     LegendNANA
05:00 11.2 10.4 95 0.0   0 16.1 101.72     LegendNANA
06:00 12.4 11.8 96 0.0 LegendMM 4 16.1 101.75     LegendNANA
07:00 13.0 12.1 94 0.0 LegendMM 4 16.1 101.77     LegendNANA
08:00 13.9 12.1 89 0.0   0 16.1 101.76     LegendNANA
09:00 14.5 11.6 82 0.0 LegendMM 4 16.1 101.79     LegendNANA
10:00 14.9 11.7 81 0.0 26 9 16.1 101.79     LegendNANA
11:00 15.4 10.4 72 0.0 22 8 16.1 101.77     LegendNANA
12:00 17.0 11.1 68 0.0 23 8 16.1 101.79     LegendNANA
13:00 17.3 11.5 68 0.0 27 9 16.1 101.78     LegendNANA
14:00 15.9 11.1 73 0.0 27 9 16.1 101.79     LegendNANA
15:00 15.3 11.3 77 0.0 27 9 16.1 101.81     LegendNANA
16:00 15.6 11.1 74 0.0 29 9 16.1 101.80     LegendNANA
17:00 15.6 11.1 74 0.0 28 11 16.1 101.76     LegendNANA
18:00 16.3 10.8 70 0.0 32 5 16.1 101.72     LegendNANA
19:00 14.6 11.0 79 0.0 31 5 16.1 101.68     LegendNANA
20:00 14.5 11.2 80 0.0 31 4 16.1 101.65     LegendNANA
21:00 13.3 11.3 88 0.0 29 4 16.1 101.64     LegendNANA
22:00 12.9 11.6 92 0.0 34 4 16.1 101.63     LegendNANA
23:00 12.4 10.9 90 0.0   0 16.1 101.62     LegendNANA

Notes on Data Quality.

Legend

  • E = Estimated
  • M = Missing
  • NA = Not Available*
  • [empty] = Indicates an unobserved value
Date modified: